Change the Weather History Date:

Tuesday, January 20, 2009

  Actual Average Record
Temperature  
Mean Temperature 21 °F 37 °F  
Max Temperature 24 °F 47 °F 69 °F (1906)
Min Temperature 17 °F 27 °F -13 °F (1985)
Degree Days  
Heating Degree Days 44 28  
Month to date heating degree days 568 560  
Since 1 July heating degree days 2293 2221  
Cooling Degree Days 0 0  
Month to date cooling degree days 0 0  
Year to date cooling degree days 0 0  
Moisture  
Dew Point 9 °F    
Average Humidity 68    
Maximum Humidity 84    
Minimum Humidity 52    
Precipitation  
Precipitation T in 0.13 in 2.49 in (1979)
Month to date precipitation 2.23 2.34  
Year to date precipitation 2.23 2.34  
Snow  
Snow T in 0.20 in 3.70 in (1983)
Month to date snowfall 1.0 2.7  
Since 1 July snowfall 1.0 3.7  
Snow Depth -    
Sea Level Pressure  
Sea Level Pressure 29.77 in    
Wind  
Wind Speed 20 mph (NNW)    
Max Wind Speed 31 mph    
Max Gust Speed 41 mph    
Visibility 10 miles    
Events Snow    
T = Trace of Precipitation, MM = Missing Value Source: NWS Daily Summary

Daily Weather History Graph

Daily Weather History Graph

Search for Another Location

Airport or City:

Trip Planner

Search our weather history database for the weather conditions in past years. The results will help you decide how hot, cold, wet, or windy it might be!

Date:

Astronomy

Jan. 20, 2009 Rise Set
Actual Time 7:36 AM EST 5:46 PM EST
Civil Twilight 7:09 AM EST 6:13 PM EST
Nautical Twilight 6:38 AM EST 6:44 PM EST
Astronomical Twilight 6:08 AM EST 7:14 PM EST
Moon 3:12 AM EST (1/20) 12:58 PM EST (1/20)
Length of Visible Light 11h 04m
Length of Day
10h 09m
Waning Crescent, 26% of the Moon is Illuminated
Jan 20
Waning Crescent
Jan 26
New
Feb 2
First Quarter
Feb 9
Full
Feb 16
Last Quarter

Hourly Weather History & Observations

Time (EST) Temp. Windchill Dew Point Humidity Pressure Visibility Wind Dir Wind Speed Gust Speed Precip Events Conditions
12:54 AM 21.9 °F 7.3 °F 17.1 °F 82% 29.61 in 10.0 mi NNW 18.4 mph 38.0 mph N/A   Clear
1:54 AM 21.0 °F 4.3 °F 14.0 °F 74% 29.62 in 9.0 mi NNW 24.2 mph 33.4 mph 0.00 in   Overcast
2:37 AM 19.4 °F 2.1 °F 12.2 °F 74% 29.59 in 10.0 mi NNW 24.2 mph 35.7 mph N/A   Overcast
2:54 AM 19.9 °F 2.8 °F 10.9 °F 68% 29.63 in 10.0 mi NNW 24.2 mph 29.9 mph N/A   Overcast
3:54 AM 18.0 °F 0.6 °F 9.0 °F 68% 29.63 in 10.0 mi NNW 23.0 mph 28.8 mph N/A   Clear
4:28 AM 17.6 °F -0.3 °F 8.6 °F 68% 29.60 in 10.0 mi NNW 24.2 mph 31.1 mph N/A   Mostly Cloudy
4:50 AM 17.6 °F 0.1 °F 8.6 °F 68% 29.60 in 10.0 mi NNW 23.0 mph 29.9 mph N/A   Scattered Clouds
4:54 AM 18.0 °F 0.2 °F 8.1 °F 65% 29.65 in 10.0 mi NNW 24.2 mph 31.1 mph N/A   Partly Cloudy
5:54 AM 18.0 °F 0.2 °F 8.1 °F 65% 29.67 in 10.0 mi NNW 24.2 mph 31.1 mph N/A   Mostly Cloudy
6:43 AM 17.6 °F 2.2 °F 8.6 °F 68% 29.63 in 10.0 mi NNW 17.3 mph 28.8 mph N/A   Mostly Cloudy
6:54 AM 18.0 °F 2.6 °F 8.1 °F 65% 29.69 in 10.0 mi NNW 17.3 mph 32.2 mph 0.00 in Snow Light Snow
7:03 AM 17.6 °F 0.9 °F 8.6 °F 68% 29.64 in 9.0 mi NNW 20.7 mph 27.6 mph 0.00 in Snow Light Snow
7:32 AM 17.6 °F -0.6 °F 6.8 °F 63% 29.66 in 9.0 mi NNW 25.3 mph 34.5 mph 0.00 in Snow Light Snow
7:43 AM 17.6 °F 2.2 °F 8.6 °F 68% 29.66 in 9.0 mi NNW 17.3 mph 29.9 mph 0.00 in Snow Light Snow
7:54 AM 18.0 °F 0.6 °F 8.1 °F 65% 29.72 in 9.0 mi NNW 23.0 mph 31.1 mph 0.00 in Snow Light Snow
8:54 AM 19.0 °F 2.4 °F 8.1 °F 62% 29.75 in 9.0 mi NNW 21.9 mph 33.4 mph 0.00 in Snow Light Snow
9:54 AM 19.9 °F 2.5 °F 8.1 °F 60% 29.77 in 10.0 mi NNW 25.3 mph 39.1 mph 0.00 in   Mostly Cloudy
10:29 AM 21.2 °F 5.2 °F 10.4 °F 63% 29.73 in 10.0 mi North 21.9 mph 32.2 mph 0.00 in   Overcast
11:54 AM 23.0 °F 8.0 °F 8.1 °F 53% 29.79 in 10.0 mi NNW 20.7 mph 31.1 mph N/A   Scattered Clouds
12:54 PM 21.9 °F 5.5 °F 7.0 °F 53% 29.79 in 10.0 mi North 24.2 mph 33.4 mph N/A   Scattered Clouds
1:54 PM 23.0 °F 9.2 °F 8.1 °F 53% 29.79 in 10.0 mi North 17.3 mph 31.1 mph N/A   Scattered Clouds
2:54 PM 21.9 °F 7.8 °F 7.0 °F 53% 29.81 in 10.0 mi North 17.3 mph 27.6 mph N/A   Mostly Cloudy
3:54 PM 21.9 °F 6.9 °F 7.0 °F 53% 29.85 in 10.0 mi North 19.6 mph 23.0 mph N/A   Mostly Cloudy
4:54 PM 21.0 °F 7.1 °F 8.1 °F 57% 29.87 in 10.0 mi NNW 16.1 mph 26.5 mph N/A   Overcast
5:54 PM 19.0 °F 3.6 °F 8.1 °F 62% 29.90 in 10.0 mi North 18.4 mph 26.5 mph N/A   Overcast
6:54 PM 19.0 °F 4.5 °F 9.0 °F 65% 29.94 in 10.0 mi NNW 16.1 mph 23.0 mph 0.00 in   Overcast
7:54 PM 19.0 °F 5.6 °F 7.0 °F 59% 29.96 in 10.0 mi North 13.8 mph 20.7 mph N/A   Overcast
8:54 PM 19.0 °F 5.6 °F 8.1 °F 62% 29.98 in 10.0 mi NNW 13.8 mph 27.6 mph N/A   Overcast
9:54 PM 19.0 °F 3.6 °F 8.1 °F 62% 30.00 in 10.0 mi North 18.4 mph 24.2 mph 0.00 in   Overcast
10:42 PM 17.6 °F -1.9 °F 6.8 °F 63% 29.92 in 10.0 mi NNW 29.9 mph 35.7 mph 0.00 in   Overcast
10:54 PM 17.6 °F 0.9 °F 8.6 °F 68% 29.92 in 10.0 mi NNW 20.7 mph 36.8 mph N/A   Overcast
11:20 PM 17.6 °F 6.4 °F 8.6 °F 68% 29.96 in 10.0 mi North 9.2 mph 23.0 mph 0.00 in   Overcast
11:54 PM 18.0 °F 2.2 °F 9.0 °F 68% 30.02 in 10.0 mi NNW 18.4 mph 23.0 mph 0.00 in   Overcast